Vorticity
4 2 2 0 1 -2 -4 4 14 13 4 8 1 4 -3 15 3 4 -0 5 7 16 13 12 11 9 8 6 6 5 6 6 4 6 5 9 9 6 6 6 7 6 5 6 5 6 6 5 5
4 1 2 -2 0 0 -1 8 9 4 2 6 9 1 6 4 8 -3 7 0 10 7 7 6 7 8 8 9 14 16 11 7 10 16 5 3 6 5 4 4 5 7 5 4 2 6 7 5 4
2 1 -1 3 -1 -4 -3 10 2 0 2 8 5 4 7 9 16 -5 1 6 8 9 6 8 6 7 12 7 1 10 16 19 14 17 17 12 11 8 5 3 7 8 7 5 4 3 4 5 3
1 -1 6 3 1 -4 -2 6 4 1 -1 4 7 5 5 3 3 16 9 1 10 9 6 4 4 6 5 10 11 4 7 7 10 13 6 12 6 7 4 7 11 10 9 7 4 4 5 6 4
9 5 2 2 0 -7 -5 5 1 -1 0 5 6 2 -2 -0 13 10 4 9 8 11 3 4 6 3 10 9 5 10 11 5 1 15 9 8 8 6 8 11 9 8 7 6 7 7 7 9 8
-0 3 2 1 1 -4 -5 5 -0 3 5 6 5 5 2 -2 14 7 9 10 10 5 4 4 9 5 13 12 3 5 6 6 5 6 6 3 7 8 7 5 11 8 7 8 8 9 11 10 8
7 6 2 4 -4 4 -5 3 6 3 7 6 2 3 5 -0 2 13 17 -1 7 1 7 6 9 11 9 3 5 3 3 3 7 8 9 7 4 4 2 7 9 8 8 11 14 16 12 9 8
-10 -4 2 -5 9 -1 9 4 22 -4 -1 8 7 6 1 -3 -8 18 9 1 3 5 7 9 7 4 5 7 3 1 4 7 6 6 8 9 11 10 9 9 9 8 10 14 9 13 11 2 9
12 4 5 4 -5 12 -1 -0 14 4 -5 7 14 12 11 7 12 12 8 3 6 9 8 7 4 3 3 3 0 3 6 5 4 10 11 11 11 12 13 14 13 13 14 11 -2 9 12 12 2
-4 7 -1 13 -11 7 -2 4 4 12 3 8 -6 18 10 13 9 6 9 8 11 5 8 6 8 6 5 6 8 7 4 9 13 14 13 11 12 12 11 10 11 9 8 5 -2 6 16 16 14
5 -3 -1 14 -6 4 3 2 6 4 7 5 19 18 4 6 7 14 9 5 6 5 1 4 4 5 9 11 7 3 15 11 15 13 10 13 10 15 12 17 15 10 9 3 9 7 8 8 12
10 2 2 4 4 -1 1 5 -2 19 11 30 32 8 9 14 12 -0 8 7 13 6 14 7 8 9 9 4 9 11 11 18 11 12 10 9 9 10 9 7 10 13 11 8 11 11 4 13 9
1 3 -2 7 2 -2 7 0 1 22 15 29 14 7 6 7 8 7 9 14 10 7 0 7 8 7 8 13 5 11 16 13 5 10 6 9 9 13 18 19 14 13 7 5 6 14 18 13 15
-3 0 5 7 6 7 1 -2 27 3 17 1 8 5 9 10 11 11 8 11 10 6 6 -3 4 4 12 9 7 11 14 9 8 5 6 9 10 10 3 12 10 12 12 14 13 16 11 14 14
1 2 5 -1 5 5 -4 14 -7 -5 13 5 7 8 8 9 11 6 8 15 16 7 -1 -3 2 2 10 9 6 10 10 6 8 1 11 10 13 19 8 13 1 1 12 9 20 12 11 11 14
0 1 4 5 5 1 5 7 -4 1 17 9 13 6 12 7 10 7 7 7 9 4 9 18 21 8 12 8 6 5 10 7 10 4 12 7 5 3 3 13 11 17 9 15 12 9 11 15 13
4 3 3 7 1 5 11 13 -2 -2 12 16 9 4 3 11 4 6 6 -1 10 6 3 1 9 15 12 7 6 10 6 8 9 11 10 7 8 13 18 14 3 5 9 16 10 14 16 17 15
7 5 6 3 6 10 4 13 11 4 9 6 2 11 10 8 4 7 2 -0 -2 4 -2 3 2 22 10 8 13 7 8 9 7 13 7 21 24 16 18 12 13 8 18 13 11 14 19 20 21
12 10 13 7 14 -0 4 9 8 5 9 9 1 10 33 14 3 11 14 5 -0 5 -0 2 4 18 9 9 7 7 8 5 12 7 10 13 12 5 7 1 -5 15 21 11 16 22 23 16 32
13 13 14 13 12 4 6 10 5 12 18 -1 0 25 9 3 5 7 5 7 2 -2 5 6 19 10 13 6 8 8 6 6 12 5 11 7 11 12 5 36 19 23 11 17 19 13 16 14 16
17 21 18 12 17 24 29 -1 7 12 8 -1 6 23 2 6 7 5 6 7 1 2 6 4 14 16 6 11 8 7 4 10 11 9 5 7 9 11 22 19 19 12 18 21 34 19 18 26 21
10 15 15 9 15 8 21 10 11 8 6 -1 24 12 4 6 6 8 7 8 3 15 -1 19 7 9 10 8 7 6 9 13 10 6 8 5 21 14 19 19 13 16 18 26 22 21 20 20 17
4 4 28 15 15 26 -5 10 13 4 7 15 3 16 13 7 10 -4 4 7 7 5 12 13 8 8 9 7 6 10 16 10 8 12 3 12 16 17 19 19 14 18 24 24 25 21 8 9 14
3 15 13 31 20 15 -14 6 28 12 19 8 8 12 5 11 6 13 7 13 14 12 10 10 9 10 8 5 8 15 8 5 12 1 17 14 18 20 25 13 20 13 13 11 9 6 10 17 12
1 7 9 10 6 13 3 6 -55 7 15 5 6 11 6 3 10 11 12 5 14 8 14 4 9 8 6 10 7 11 7 8 11 14 18 17 19 20 11 16 17 11 13 8 8 9 11 11 12
3 5 29 -1 8 7 3 5 26 13 7 14 12 4 6 8 2 8 16 10 9 10 9 7 9 6 12 5 4 20 8 12 7 22 14 22 21 9 14 18 13 13 10 11 16 11 15 19 4
2 4 12 6 0 11 2 2 13 7 7 18 14 5 7 10 6 6 18 11 14 16 6 11 5 13 12 10 16 17 11 8 22 19 25 18 18 11 17 15 16 13 17 8 7 5 11 4 2
0 7 9 1 12 0 9 14 31 -1 17 14 2 5 9 2 5 14 13 10 13 6 12 6 8 12 11 11 24 11 9 6 12 17 16 24 7 7 12 13 15 11 7 8 8 2 14 10 12
10 3 4 9 -1 8 6 13 26 13 4 10 4 2 1 9 6 13 6 11 7 11 9 4 13 12 11 17 13 6 10 12 11 13 17 16 8 10 10 10 18 19 10 -6 11 3 9 12 9
6 17 14 -0 9 8 23 24 10 8 6 5 10 3 -1 1 16 18 5 13 6 14 11 5 13 17 4 5 10 5 7 15 13 29 12 11 6 13 10 11 13 22 0 18 11 8 8 8 10
Height
5889 5889 5890 5888 5890 5888 5886 5884 5885 5884 5884 5883 5883 5881 5881 5878 5877 5875 5872 5869 5866 5862 5858 5853 5850 5847 5846 5844 5842 5840 5839 5837 5836 5836 5835 5834 5833 5833 5832 5832 5831 5831 5831 5834 5838 5840 5842 5843 5844
5888 5888 5887 5886 5887 5885 5884 5882 5881 5881 5879 5879 5879 5879 5879 5879 5875 5872 5868 5865 5861 5857 5852 5849 5846 5843 5841 5837 5835 5832 5830 5829 5829 5829 5828 5828 5828 5827 5826 5827 5826 5825 5823 5827 5829 5831 5834 5836 5837
5883 5883 5885 5884 5885 5883 5882 5880 5878 5878 5877 5875 5874 5874 5875 5874 5871 5867 5863 5861 5856 5852 5848 5844 5841 5839 5835 5832 5829 5826 5823 5821 5820 5820 5819 5819 5820 5820 5819 5820 5820 5819 5818 5819 5821 5823 5824 5828 5830
5878 5879 5880 5880 5880 5880 5879 5876 5874 5875 5873 5870 5868 5867 5869 5867 5864 5862 5859 5856 5852 5847 5843 5839 5836 5834 5831 5827 5824 5821 5818 5817 5815 5813 5812 5811 5811 5810 5810 5812 5810 5811 5811 5812 5813 5814 5817 5819 5821
5874 5874 5874 5877 5877 5877 5875 5872 5870 5869 5867 5867 5864 5862 5861 5861 5858 5856 5855 5852 5847 5843 5840 5834 5831 5827 5825 5821 5819 5815 5813 5812 5810 5809 5807 5806 5804 5803 5802 5802 5801 5802 5803 5805 5806 5806 5808 5810 5812
5869 5869 5870 5872 5874 5874 5873 5867 5864 5862 5860 5860 5859 5856 5858 5856 5853 5851 5849 5847 5842 5838 5834 5829 5824 5821 5819 5816 5814 5811 5809 5805 5803 5801 5799 5798 5797 5794 5792 5793 5793 5794 5795 5795 5796 5797 5798 5800 5803
5865 5863 5865 5867 5870 5870 5870 5864 5862 5858 5857 5856 5854 5851 5852 5850 5848 5845 5844 5841 5838 5833 5829 5824 5819 5816 5815 5812 5809 5805 5802 5800 5796 5794 5791 5789 5788 5786 5785 5784 5784 5784 5785 5786 5786 5788 5789 5790 5793
5857 5856 5859 5862 5866 5864 5864 5861 5860 5855 5855 5851 5849 5846 5846 5844 5842 5840 5838 5836 5832 5829 5824 5819 5816 5813 5811 5808 5804 5801 5798 5795 5792 5788 5785 5782 5780 5778 5777 5776 5776 5775 5776 5776 5777 5777 5778 5780 5781
5849 5846 5852 5859 5859 5858 5856 5853 5855 5851 5848 5847 5843 5842 5839 5837 5834 5834 5833 5830 5827 5824 5820 5815 5812 5809 5806 5803 5799 5796 5793 5790 5787 5783 5779 5775 5773 5772 5770 5769 5768 5767 5766 5767 5767 5767 5767 5768 5772
5839 5839 5846 5855 5852 5850 5848 5845 5845 5844 5843 5843 5839 5836 5829 5828 5826 5828 5827 5824 5822 5819 5815 5810 5808 5805 5801 5798 5794 5791 5787 5784 5780 5776 5772 5769 5765 5763 5761 5759 5758 5757 5757 5757 5757 5757 5758 5759 5761
5834 5830 5841 5843 5845 5839 5840 5840 5837 5838 5835 5834 5828 5827 5823 5822 5823 5823 5821 5818 5816 5813 5810 5806 5803 5801 5796 5792 5789 5785 5781 5777 5772 5769 5765 5761 5758 5755 5752 5750 5749 5748 5748 5748 5747 5747 5748 5749 5751
5821 5824 5831 5834 5835 5831 5832 5830 5833 5831 5825 5823 5820 5818 5817 5817 5818 5817 5815 5812 5811 5808 5805 5801 5797 5794 5790 5787 5783 5779 5774 5770 5766 5763 5759 5755 5751 5748 5745 5743 5741 5740 5740 5739 5739 5738 5738 5739 5740
5810 5818 5821 5822 5824 5827 5826 5825 5824 5824 5822 5813 5812 5811 5812 5813 5812 5810 5808 5807 5805 5802 5799 5796 5792 5788 5784 5781 5776 5772 5767 5763 5760 5757 5752 5747 5744 5741 5737 5735 5734 5732 5731 5730 5730 5728 5728 5729 5729
5806 5806 5809 5811 5815 5819 5820 5816 5816 5823 5814 5809 5807 5806 5807 5807 5805 5802 5803 5802 5800 5796 5794 5791 5787 5782 5778 5775 5770 5765 5761 5757 5754 5750 5746 5742 5738 5734 5732 5730 5727 5725 5723 5722 5720 5719 5719 5719 5720
5796 5793 5797 5802 5811 5809 5812 5804 5813 5814 5807 5801 5802 5801 5801 5802 5798 5797 5797 5796 5793 5791 5789 5786 5781 5777 5773 5769 5764 5759 5756 5752 5747 5743 5739 5735 5731 5727 5724 5722 5720 5719 5716 5714 5712 5712 5711 5711 5712
5784 5784 5784 5799 5803 5803 5802 5793 5808 5807 5797 5796 5798 5797 5797 5795 5794 5793 5790 5791 5788 5786 5784 5780 5776 5772 5768 5763 5758 5754 5750 5745 5741 5737 5732 5728 5725 5721 5718 5715 5713 5710 5707 5705 5704 5704 5703 5703 5704
5771 5771 5778 5788 5797 5796 5795 5789 5801 5799 5793 5795 5794 5793 5791 5790 5790 5787 5785 5784 5783 5781 5778 5775 5772 5767 5762 5758 5753 5749 5744 5740 5736 5731 5726 5722 5719 5715 5711 5708 5706 5703 5700 5698 5696 5695 5695 5695 5696
5759 5767 5774 5777 5790 5788 5786 5783 5789 5794 5787 5790 5791 5789 5787 5786 5784 5782 5781 5778 5777 5775 5773 5770 5766 5762 5757 5753 5748 5744 5740 5736 5732 5727 5722 5717 5713 5709 5705 5702 5699 5695 5692 5690 5689 5688 5686 5686 5688
5757 5760 5762 5770 5777 5777 5777 5775 5780 5784 5781 5784 5784 5783 5782 5781 5780 5778 5777 5774 5770 5770 5767 5765 5761 5756 5753 5748 5744 5740 5736 5732 5728 5722 5717 5713 5708 5704 5701 5696 5692 5688 5685 5683 5681 5680 5680 5681 5683
5746 5749 5754 5763 5767 5767 5767 5763 5770 5775 5777 5778 5778 5778 5776 5776 5775 5773 5771 5767 5765 5765 5762 5760 5756 5752 5748 5744 5740 5737 5732 5728 5722 5718 5713 5709 5704 5699 5694 5688 5684 5681 5679 5676 5674 5675 5677 5678 5682
5737 5741 5749 5752 5756 5753 5754 5750 5760 5770 5769 5771 5772 5772 5771 5771 5769 5768 5765 5762 5761 5760 5758 5756 5752 5748 5744 5740 5736 5732 5729 5724 5719 5714 5710 5704 5698 5693 5688 5682 5679 5677 5675 5671 5669 5672 5674 5676 5681
5731 5738 5739 5740 5742 5743 5745 5738 5751 5761 5763 5766 5767 5767 5767 5766 5763 5763 5760 5758 5757 5756 5754 5751 5747 5743 5740 5736 5732 5728 5724 5719 5715 5711 5706 5699 5694 5688 5683 5679 5677 5675 5673 5670 5670 5673 5677 5679 5683
5727 5728 5728 5730 5732 5733 5739 5735 5747 5756 5759 5763 5762 5761 5762 5760 5759 5758 5755 5754 5752 5750 5749 5747 5743 5740 5735 5732 5728 5724 5719 5716 5712 5707 5701 5696 5691 5684 5680 5677 5676 5675 5674 5673 5675 5678 5680 5683 5687
5722 5721 5721 5722 5725 5720 5737 5739 5745 5753 5754 5754 5755 5756 5756 5756 5755 5754 5752 5749 5748 5746 5745 5742 5739 5735 5732 5728 5725 5721 5716 5713 5708 5703 5697 5693 5687 5682 5679 5677 5677 5678 5677 5678 5680 5682 5685 5688 5692
5710 5713 5712 5716 5713 5715 5739 5734 5742 5748 5748 5750 5751 5753 5752 5751 5753 5750 5748 5747 5744 5742 5741 5738 5735 5731 5728 5725 5722 5717 5714 5709 5705 5700 5696 5690 5685 5681 5679 5679 5679 5680 5681 5682 5684 5686 5689 5694 5698
5709 5711 5712 5714 5718 5722 5732 5729 5745 5745 5744 5746 5748 5748 5748 5749 5749 5745 5743 5742 5740 5738 5737 5735 5731 5728 5726 5722 5719 5714 5711 5707 5702 5697 5693 5688 5685 5682 5681 5681 5682 5683 5684 5686 5688 5691 5695 5698 5702
5703 5697 5713 5714 5715 5719 5718 5734 5740 5740 5742 5745 5746 5744 5745 5745 5744 5740 5740 5738 5737 5736 5734 5731 5728 5726 5723 5720 5716 5712 5709 5705 5701 5696 5692 5688 5686 5685 5684 5684 5685 5687 5688 5691 5693 5696 5700 5703 5706
5691 5698 5701 5702 5705 5706 5718 5729 5735 5736 5740 5741 5741 5742 5742 5742 5739 5738 5738 5736 5734 5733 5730 5729 5727 5724 5722 5718 5714 5711 5708 5705 5701 5696 5692 5689 5689 5688 5687 5688 5689 5691 5693 5695 5698 5701 5704 5707 5710
5682 5685 5688 5696 5696 5705 5715 5725 5731 5734 5738 5737 5738 5739 5739 5739 5736 5737 5736 5733 5732 5730 5728 5727 5725 5723 5720 5717 5714 5711 5708 5705 5701 5697 5693 5691 5692 5691 5690 5690 5692 5694 5696 5698 5701 5704 5708 5711 5713
5676 5681 5689 5693 5698 5706 5714 5722 5726 5729 5733 5734 5735 5736 5736 5736 5735 5734 5732 5732 5730 5728 5727 5726 5724 5722 5720 5718 5715 5712 5709 5706 5702 5697 5695 5694 5695 5695 5694 5694 5695 5698 5700 5703 5706 5709 5712 5716 5719